(65717) = 1993 BX3

Discovered at Siding Spring on 1993-01-31 by R. H. McNaught.

Orbit

Orbit type: Amor
Potentially Hazardous Asteroid

Note: WebGL enabled browser required.

epoch2023-02-25.0
epoch JD2460000.5
perihelion date2022-09-01.03600
perihelion JD2459823.53600
argument of perihelion (°)290.96675
ascending node (°)174.75693
inclination (°)2.80922
eccentricity0.2809332
perihelion distance (AU)1.0033798
Tisserand w.r.t. Jupiter4.7
ΔV w.r.t. Earth (km/sec)4.5
semimajor axis (AU)1.3953917
mean anomaly (°)105.81436
mean daily motion (°/day)0.59794280
aphelion distance (AU)1.787
period (years)1.65
P-vector [x]-0.27110077
P-vector [y]0.90032892
P-vector [z]0.34045884
Q-vector [x]-0.96254055
Q-vector [y]-0.25521903
Q-vector [z]-0.09153648
absolute magnitude20.87
phase slope0.15
uncertainty0
referenceMPO 745323
observations used5557
oppositions7
arc length (days)10452
first opposition used1992
last opposition used2021
residual rms (arc-secs)0.30
perturbers coarse indicatorM-v
perturbers precise indicator003Ek
first observation date used1992-10-03.0
last observation date used2021-05-16.0
computer nameMPCLINUX
JD of orbit computation2456937.254491
perihelion JD uncertainty (days)1.6116E-04
argument of perihelion uncertainty (°)1.1353E-04
ascending node uncertainty (°)9.8963E-05
inclination uncertainty (°)1.0711E-05
eccentricity uncertainty 1.0119E-07
perihelion distance uncertainty (AU)1.4501E-07
Minimum Orbit Intersection Distances (in AU)
for orbit epoch: 2460000.5, reference: E2023-K55
Mercury0.69187
Venus0.29124
Earth0.04749
Mars0.02729
Jupiter3.34651
Saturn8.02837
Uranus17.2075
Neptune28.3909

Observations

5573 total observations over interval: 1992 10 03.39583 – 2021 05 16.308431
These data are available for download (format description).

Date (UT) J2000 RA J2000 Dec Magn Location Ref
1992 10 03.39583 02 44 18.20 +11 30 11.9   261 – Palomar Mountain-DSS MPS 81312
1992 10 03.43056 02 44 19.78 +11 29 54.7   261 – Palomar Mountain-DSS MPS 81312
1993 01 19.64072 09 51 18.14 -36 27 23.4   413 – Siding Spring Observatory MPC 22142
1993 01 31.59756 10 53 11.50 -24 14 48.7 17 V 413 – Siding Spring Observatory MPC 21691
1993 01 31.64270 10 53 18.30 -24 12 14.2   413 – Siding Spring Observatory MPC 21691
1993 02 02.66066 10 59 27.68 -22 16 10.8   413 – Siding Spring Observatory MPC 21691
1993 02 02.66760 10 59 28.56 -22 15 47.0   413 – Siding Spring Observatory MPC 21691
1993 02 03.72257 11 02 18.54 -21 16 35.0   413 – Siding Spring Observatory MPC 21691
1993 02 03.75675 11 02 22.54 -21 14 35.6   413 – Siding Spring Observatory MPC 22143
1993 02 14.58569 11 21 09.36 -12 09 33.3   413 – Siding Spring Observatory MPC 21691
1993 02 14.59417 11 21 09.59 -12 09 10.9   413 – Siding Spring Observatory MPC 21691
1993 02 15.50961 11 22 01.90 -11 27 46.3   474 – Mount John Observatory, Lake Tekapo MPC 21691
1993 02 15.53160 11 22 02.51 -11 26 49.6   474 – Mount John Observatory, Lake Tekapo MPC 21691
1993 02 16.61528 11 22 54.83 -10 39 15.9   474 – Mount John Observatory, Lake Tekapo MPC 21691
1993 02 16.63715 11 22 55.19 -10 38 18.0   474 – Mount John Observatory, Lake Tekapo MPC 21691
1993 02 18.40837 11 24 11.35 -09 24 55.2   657 – Climenhaga Observatory, Victoria MPC 21867
1993 02 18.41046 11 24 11.37 -09 24 49.7   657 – Climenhaga Observatory, Victoria MPC 21867
1993 02 18.41281 11 24 11.42 -09 24 43.4   657 – Climenhaga Observatory, Victoria MPC 21867
1993 02 18.48241 11 24 16.86 -09 19 43.9   474 – Mount John Observatory, Lake Tekapo MPC 22144
1993 02 18.50035 11 24 17.09 -09 18 58.9 17.3   474 – Mount John Observatory, Lake Tekapo MPC 22144
1993 02 21.29830 11 25 39.99 -07 27 46.3   801 – Oak Ridge Observatory MPC 21893
1993 02 21.31088 11 25 39.99 -07 27 17.4   801 – Oak Ridge Observatory MPC 21893
1993 02 22.40471 11 26 06.03 -06 45 05.4   658 – Dominion Astrophysical Observatory MPC 21867
1993 02 22.40875 11 26 06.00 -06 44 55.9   658 – Dominion Astrophysical Observatory MPC 21867
1993 02 22.41271 11 26 06.01 -06 44 46.9   658 – Dominion Astrophysical Observatory MPC 21867
1993 02 23.54684 11 26 28.33 -06 00 15.9 18.0   474 – Mount John Observatory, Lake Tekapo MPC 22144
1993 02 23.56495 11 26 28.11 -05 59 35.2   474 – Mount John Observatory, Lake Tekapo MPC 22144
1993 03 01.62635 11 27 21.70 -02 33 13.3   413 – Siding Spring Observatory MPC 22006
1993 03 01.62846 11 27 21.65 -02 33 09.4   413 – Siding Spring Observatory MPC 22006
1993 03 02.63329 11 27 23.49 -02 02 20.5   413 – Siding Spring Observatory MPC 22006
1993 03 02.63550 11 27 23.44 -02 02 16.4   413 – Siding Spring Observatory MPC 22007
1993 03 03.49624 11 27 27.20 -01 36 38.2   413 – Siding Spring Observatory MPC 22143
1993 03 03.49882 11 27 27.15 -01 36 33.6   413 – Siding Spring Observatory MPC 22143
1993 03 22.50994 11 26 58.48 +04 55 45.9   474 – Mount John Observatory, Lake Tekapo MPC 22144
1993 03 22.56616 11 26 58.05 +04 56 27.9 18.7   474 – Mount John Observatory, Lake Tekapo MPC 22144
1993 03 23.47102 11 27 03.84 +05 07 31.1 18.4   474 – Mount John Observatory, Lake Tekapo MPC 22144
1993 03 23.50343 11 27 03.64 +05 07 53.9   474 – Mount John Observatory, Lake Tekapo MPC 22144
1998 03 23.43964 15 17 49.41 -14 57 30.1 21.8 V 691 – Steward Observatory, Kitt Peak-Spacewatch MPS 644
1998 03 23.45249 15 17 48.86 -14 57 22.9 21.4 V 691 – Steward Observatory, Kitt Peak-Spacewatch MPS 644
1998 03 23.46844 15 17 47.88 -14 57 12.5 20.3 V 691 – Steward Observatory, Kitt Peak-Spacewatch MPS 644
1998 03 24.39493 15 17 08.78 -14 47 43.9 21.1 V 691 – Steward Observatory, Kitt Peak-Spacewatch MPS 644
1998 03 24.40599 15 17 08.17 -14 47 36.7 20.6 V 691 – Steward Observatory, Kitt Peak-Spacewatch MPS 644
1998 03 24.41752 15 17 07.55 -14 47 29.4 20.5 V 691 – Steward Observatory, Kitt Peak-Spacewatch MPS 644
2003 05 06.34751 16 12 54.77 -14 35 17.5   291 – LPL/Spacewatch II MPS 77737
2003 05 06.35124 16 12 54.35 -14 35 16.6   291 – LPL/Spacewatch II MPS 77737
2003 06 07.28170 15 19 04.39 -11 37 40.0 22.7 V 291 – LPL/Spacewatch II MPS 79447
2003 06 07.28550 15 19 04.10 -11 37 39.4 22.3 V 291 – LPL/Spacewatch II MPS 79447
2005 09 27.24299 20 19 51.50 -17 49 14.5   568 – Maunakea MPS 307034
2005 09 27.28848 20 19 51.77 -17 49 22.6   568 – Maunakea MPS 307034
2005 09 27.33450 20 19 52.07 -17 49 30.0   568 – Maunakea MPS 307034
2005 09 30.24146 20 20 36.62 -17 57 01.8   568 – Maunakea MPS 307034
2005 09 30.28783 20 20 37.33 -17 57 08.1   568 – Maunakea MPS 307034
2005 09 30.33332 20 20 38.06 -17 57 13.9   568 – Maunakea MPS 307034
2010 09 29.18893 21 24 57.09 -14 19 29.9 21.6 V G96 – Mt. Lemmon Survey MPS 350299
2010 09 29.19462 21 24 56.80 -14 19 32.4 21.6 V G96 – Mt. Lemmon Survey MPS 350299
2010 09 29.20043 21 24 56.59 -14 19 35.2 21.5 V G96 – Mt. Lemmon Survey MPS 350299
2010 09 29.20620 21 24 56.34 -14 19 37.8 21.4 V G96 – Mt. Lemmon Survey MPS 350299
2011 06 01.35201 10 07 27.96 +13 01 44.1   568 – Maunakea MPS 532209
2011 06 01.35408 10 07 28.39 +13 01 42.1   568 – Maunakea MPS 532209
2011 06 01.35632 10 07 28.87 +13 01 39.4   568 – Maunakea MPS 532209
2015 09 09.41882 23 47 14.431 -00 22 52.68 20.4 w F51 – Pan-STARRS 1, Haleakala MPS 625399
2015 09 09.43098 23 47 13.380 -00 23 02.39 20.2 w F51 – Pan-STARRS 1, Haleakala MPS 625399
2015 09 09.44316 23 47 12.322 -00 23 12.11 20.3 w F51 – Pan-STARRS 1, Haleakala MPS 625399
2015 09 09.45536 23 47 11.268 -00 23 21.80 20.3 w F51 – Pan-STARRS 1, Haleakala MPS 625399
2015 09 09.65618 23 46 55.56 -00 26 05.9 20.4 R D29 – Purple Mountain Observatory, XuYi Station MPS 625399
2015 09 09.67117 23 46 54.25 -00 26 17.3 20.5 R D29 – Purple Mountain Observatory, XuYi Station MPS 625399
2015 09 09.68616 23 46 52.93 -00 26 30.0 20.7 R D29 – Purple Mountain Observatory, XuYi Station MPS 625399
2015 09 12.39583 23 43 07.559 -01 04 10.24 20.1 w F51 – Pan-STARRS 1, Haleakala MPS 627531
2015 09 12.40758 23 43 06.454 -01 04 20.51 20.1 w F51 – Pan-STARRS 1, Haleakala MPS 627531
2015 09 12.41932 23 43 05.350 -01 04 30.68 20.1 w F51 – Pan-STARRS 1, Haleakala MPS 627531
2015 09 12.43109 23 43 04.241 -01 04 40.88 20.2 w F51 – Pan-STARRS 1, Haleakala MPS 627531
2015 09 14.27433 23 40 20.56 -01 32 01.1 20.3 r G45 – Space Surveillance Telescope, Atom Site MPS 630002
2015 09 14.27877 23 40 20.13 -01 32 04.9 20.7 r G45 – Space Surveillance Telescope, Atom Site MPS 630002
2015 09 14.28409 23 40 19.62 -01 32 10.4 20.1 r G45 – Space Surveillance Telescope, Atom Site MPS 630002
2015 09 14.28918 23 40 19.08 -01 32 15.1 20.5 r G45 – Space Surveillance Telescope, Atom Site MPS 630002
2015 09 14.29427 23 40 18.65 -01 32 19.0 20.8 r G45 – Space Surveillance Telescope, Atom Site MPS 630002
2015 09 14.29538 23 40 18.48 -01 32 20.4 19.9 r G45 – Space Surveillance Telescope, Atom Site MPS 630002
2015 09 14.30603 23 40 17.46 -01 32 29.5 20.4 r G45 – Space Surveillance Telescope, Atom Site MPS 630002
2015 09 15.27441 23 38 48.61 -01 47 18.6 20.2 r G45 – Space Surveillance Telescope, Atom Site MPS 630002
2015 09 15.28476 23 38 47.57 -01 47 27.6 20.9 r G45 – Space Surveillance Telescope, Atom Site MPS 630002
2015 09 15.28998 23 38 47.06 -01 47 32.7 20.5 r G45 – Space Surveillance Telescope, Atom Site MPS 630002
2015 09 15.29506 23 38 46.57 -01 47 37.5 20.3 r G45 – Space Surveillance Telescope, Atom Site MPS 630002
2015 09 15.29635 23 38 46.43 -01 47 38.2 20.0 r G45 – Space Surveillance Telescope, Atom Site MPS 630002
2015 09 15.30167 23 38 45.90 -01 47 44.2 20.6 r G45 – Space Surveillance Telescope, Atom Site MPS 630002
2015 09 18.35049 23 33 54.02 -02 36 10.3 20.1 V 691 – Steward Observatory, Kitt Peak-Spacewatch MPS 627531
2015 09 18.36931 23 33 52.04 -02 36 28.6 20.0 V 691 – Steward Observatory, Kitt Peak-Spacewatch MPS 627531
2015 09 18.38812 23 33 50.09 -02 36 46.9 19.8 V 691 – Steward Observatory, Kitt Peak-Spacewatch MPS 627531
2015 12 06.10259 23 22 59.14 -10 10 51.5 20.9 V G96 – Mt. Lemmon Survey MPS 658383
2015 12 06.10769 23 22 59.69 -10 10 48.8 21.2 V G96 – Mt. Lemmon Survey MPS 658383
